Temperature
15 13 14 15 14 15 14 14 13 12 13 14 13 13 14 15 14 13 14 15 16 16 16 15 14 14 14 14 14 14 14 13 13 12 12 11 11 11 10 10 10 10 10 11
13 14 15 15 15 15 14 14 12 12 13 13 11 11 12 11 12 14 14 14 15 15 15 14 14 13 13 13 13 13 13 13 12 12 11 10 10 10 10 10 10 10 10 10
15 15 15 16 15 14 14 13 13 12 11 10 10 11 12 13 13 14 14 15 15 14 14 14 13 13 13 13 13 13 13 12 12 11 10 10 10 10 10 10 10 10 10 9
14 13 14 15 14 14 12 13 12 11 10 9 10 10 10 10 10 11 13 14 15 15 14 12 12 12 12 13 13 13 12 12 11 10 10 10 9 9 9 9 9 9 9 9
13 12 13 14 14 13 13 12 11 10 10 8 8 8 9 9 12 12 10 13 15 15 15 13 12 12 12 12 12 12 12 11 11 10 10 9 9 9 9 9 9 9 8 8
12 12 12 13 13 12 11 11 10 8 7 9 10 8 9 9 12 10 9 12 14 14 15 14 12 12 12 12 12 12 12 11 10 10 9 9 9 9 8 8 8 8 8 8
10 11 12 12 12 11 10 10 9 9 9 9 9 9 9 10 10 10 8 10 11 12 13 13 13 12 12 12 12 12 11 11 10 9 9 9 9 8 8 8 8 8 8 8
9 10 11 11 12 11 10 10 10 9 8 7 8 8 9 9 9 9 9 8 9 9 11 12 12 11 12 12 12 11 11 11 10 10 9 9 8 8 8 8 8 8 8 7
9 9 10 10 11 11 11 9 9 8 6 6 6 6 7 9 7 6 6 7 7 8 9 10 10 10 11 11 11 11 11 11 10 10 9 9 8 8 7 7 7 7 7 7
9 8 8 8 10 10 10 8 6 7 7 7 6 6 7 7 5 4 5 5 6 7 8 9 9 9 10 11 11 11 11 10 10 10 9 9 8 7 7 7 7 7 7 6
7 7 7 7 9 10 9 9 8 6 5 5 5 7 7 5 3 3 3 5 6 6 6 6 7 8 9 10 10 10 10 10 10 9 9 8 8 7 7 6 6 6 6 6
5 5 5 6 7 8 9 8 6 5 5 4 4 7 6 4 4 4 4 5 5 4 4 4 5 6 7 8 9 9 9 9 9 8 8 7 7 6 6 6 6 6 6 5
7 5 5 6 7 6 6 6 6 5 3 4 4 6 7 7 6 6 5 4 4 4 3 3 3 4 5 7 8 8 7 7 7 6 6 5 5 6 5 5 5 5 4 4
7 4 5 5 6 4 4 5 5 4 2 2 3 4 5 5 5 5 5 4 4 3 3 2 2 2 2 3 4 4 4 5 5 4 4 4 5 5 5 4 3 3 2 1
4 3 3 3 3 3 3 3 3 3 2 2 3 3 4 4 3 3 4 4 3 3 2 2 1 -0 -0 -0 0 1 2 2 2 2 4 4 4 4 3 2 2 1 -0 -1
2 2 1 1 2 2 2 3 3 3 3 2 3 3 4 4 3 3 4 4 3 3 3 2 1 -0 -1 -1 -1 -0 0 0 1 2 2 3 2 2 1 0 -0 -1 -2 -3
1 1 0 -1 0 1 2 3 4 3 2 2 1 2 3 2 2 3 3 3 3 3 3 3 2 1 0 0 -0 -0 -1 -1 -1 -0 0 1 -0 -1 -1 -2 -2 -3 -4 -4
1 1 0 -1 -1 -1 1 2 2 2 2 2 2 2 2 2 3 3 3 3 3 3 3 3 2 2 1 0 0 -0 -1 -2 -2 -2 -2 -2 -3 -3 -3 -4 -4 -4 -5 -5
0 1 -0 -1 -2 -2 1 2 2 1 1 2 2 2 2 3 2 2 2 3 2 2 2 3 2 1 1 -0 -1 -1 -2 -3 -4 -4 -4 -4 -4 -5 -5 -5 -5 -5 -5 -6
-0 -0 -1 -3 -2 -2 1 2 2 1 0 2 2 1 2 1 -0 1 1 1 1 1 2 2 2 1 -0 -1 -1 -2 -3 -4 -5 -5 -5 -5 -5 -5 -6 -6 -6 -6 -6 -6
-0 -1 -2 -3 -4 -2 -0 1 1 -1 0 3 2 1 0 -1 -1 -1 -1 -1 -0 0 1 1 1 0 -1 -2 -3 -3 -4 -5 -6 -6 -6 -6 -6 -7 -7 -7 -7 -7 -7 -7
-1 -2 -3 -4 -5 -3 0 1 -0 1 2 2 0 -1 -2 -2 -2 -2 -2 -2 -1 -1 -0 0 -0 -1 -2 -3 -4 -4 -5 -6 -7 -7 -7 -7 -7 -8 -8 -8 -8 -8 -8 -8
-2 -2 -3 -3 -1 1 3 2 2 2 1 -1 -2 -2 -3 -3 -2 -2 -2 -2 -2 -1 -1 -1 -1 -2 -3 -4 -5 -5 -7 -7 -7 -7 -7 -8 -8 -9 -9 -9 -9 -9 -9 -9
-3 -2 -3 -3 -1 1 2 2 1 0 -1 -2 -3 -3 -3 -2 -2 -2 -2 -2 -2 -2 -1 -2 -3 -4 -5 -6 -6 -7 -8 -8 -8 -8 -9 -9 -9 -9 -9 -9 -9 -9 -9 -10
-3 -2 -3 -3 -1 0 1 1 -0 -2 -3 -4 -4 -3 -3 -2 -2 -2 -2 -2 -2 -2 -3 -4 -5 -6 -7 -7 -8 -8 -8 -8 -9 -10 -10 -10 -10 -10 -9 -9 -9 -9 -10 -11
-3 -3 -3 -2 1 -0 0 -0 -2 -4 -4 -4 -4 -3 -3 -3 -3 -3 -3 -4 -4 -5 -6 -6 -7 -7 -8 -9 -9 -9 -9 -9 -10 -10 -10 -10 -10 -10 -10 -10 -10 -10 -10 -11
Wind_Speed
5 5 2 2 3 3 3 5 8 8 6 5 10 15 20 22 13 12 11 9 10 11 8 7 8 7 6 5 6 5 5 4 4 4 3 3 3 3 3 4 5 6 5 4
6 3 4 3 2 2 3 6 7 8 5 5 9 12 14 13 9 8 8 9 10 10 7 8 8 7 6 6 6 6 6 5 3 3 2 2 0 1 2 2 4 6 6 6
1 3 4 2 3 4 4 5 6 8 9 6 7 9 8 7 7 7 7 6 9 10 10 10 9 9 6 7 8 7 7 6 4 3 2 2 2 2 3 3 3 4 4 4
3 5 4 3 3 2 5 5 6 7 7 6 5 7 7 8 12 10 12 13 13 13 9 8 8 9 8 8 8 8 8 6 5 4 3 3 3 2 2 2 2 3 2 2
4 5 5 2 3 2 6 6 6 4 3 4 2 4 9 7 6 8 12 14 14 13 9 8 8 9 9 8 8 8 7 6 5 4 4 4 3 2 2 2 3 3 2 1
5 4 1 2 3 2 4 6 4 4 4 4 3 4 8 5 3 7 10 13 15 15 9 7 8 8 8 7 6 6 7 6 5 4 4 3 3 3 3 2 2 2 2 2
9 8 6 4 5 7 9 7 6 8 5 6 3 4 9 7 4 4 9 13 16 15 10 7 9 9 9 9 8 7 7 6 4 3 2 2 3 2 2 2 1 1 2 3
7 8 6 5 2 5 4 3 2 4 6 7 6 7 8 5 5 7 9 11 14 16 14 11 10 9 9 10 9 8 9 8 5 4 2 3 2 2 1 1 2 2 2 2
4 7 6 4 3 1 1 1 1 1 5 6 8 8 10 6 14 17 20 23 23 23 21 16 12 10 10 10 10 9 9 7 6 6 7 7 6 5 5 5 4 4 3 3
2 7 8 8 5 2 2 4 4 1 4 7 9 7 5 9 12 18 21 19 18 18 19 17 13 11 11 10 9 8 9 8 8 9 9 8 7 5 4 4 4 4 3 4
6 4 8 7 4 3 4 1 1 1 3 4 8 9 1 6 8 10 11 12 14 17 19 18 16 14 13 12 11 9 7 7 8 9 10 9 6 4 3 4 4 4 3 4
6 2 6 8 6 3 1 2 3 2 6 5 7 13 3 3 7 10 13 16 16 16 19 20 21 20 17 15 11 7 6 7 8 8 9 9 5 3 4 4 3 3 4 4
6 3 7 9 5 7 7 5 4 4 6 9 13 14 9 19 21 14 13 16 15 16 18 19 22 22 19 14 4 6 7 8 8 8 10 7 3 2 3 2 2 3 3 4
1 4 7 8 6 4 5 8 11 9 8 10 11 19 20 17 18 15 17 17 14 14 15 17 18 18 16 11 7 7 7 6 8 9 7 5 2 2 2 2 2 3 4 4
4 3 5 8 10 8 8 14 13 11 11 10 13 18 19 13 12 11 12 15 16 14 12 12 12 12 12 11 9 8 7 6 7 6 5 3 2 2 2 2 3 4 5 5
5 5 5 6 6 6 9 14 11 8 8 11 16 17 13 12 9 10 13 16 19 16 11 8 7 7 8 8 8 7 7 6 3 2 2 1 1 2 2 3 4 5 5 5
4 3 5 6 8 7 7 5 4 8 12 10 12 15 17 14 11 12 14 18 21 18 13 9 8 6 4 1 2 4 5 4 4 3 4 5 4 4 4 4 5 6 5 5
3 2 3 6 8 5 8 6 6 9 13 11 16 15 12 11 13 16 15 18 19 17 15 12 10 9 6 3 2 1 2 3 5 6 6 6 6 6 5 4 5 5 4 5
5 4 2 2 5 9 11 8 2 8 21 14 14 13 11 14 19 23 13 13 15 17 16 13 8 5 3 1 2 3 4 5 6 7 6 6 6 6 5 4 5 5 5 5
2 3 2 2 2 6 11 9 5 7 13 8 7 15 23 27 27 25 18 16 18 18 14 9 5 6 5 3 4 5 5 5 6 7 7 6 6 5 4 4 4 4 5 5
3 2 3 5 7 10 10 6 8 6 10 12 19 26 30 30 25 27 27 24 21 18 10 2 8 7 5 4 5 6 5 5 6 6 6 6 6 5 5 4 4 4 4 4
4 3 4 4 4 10 7 7 6 12 18 21 27 27 28 29 30 29 28 24 20 15 1 8 9 8 6 6 6 6 4 4 5 4 4 5 6 6 5 5 5 5 4 3
6 7 5 8 10 10 10 13 16 19 23 23 24 26 27 27 29 28 25 21 17 10 4 9 10 9 8 7 6 5 4 5 5 4 5 5 5 6 5 4 4 4 4 3
6 4 5 7 12 14 18 21 16 14 20 24 24 25 25 25 26 24 20 15 10 1 7 9 10 9 8 7 6 5 5 6 4 4 4 4 5 5 5 4 4 3 3 3
8 5 6 9 13 13 12 12 14 20 21 23 23 23 20 21 20 18 15 10 5 7 8 9 9 9 8 6 6 6 6 6 4 3 4 4 4 3 4 4 4 4 3 4
6 8 7 8 9 9 17 14 17 20 22 23 23 19 16 16 16 15 13 12 12 12 11 11 10 9 7 6 6 6 7 6 5 4 4 4 4 3 4 4 5 7 6 8
Wind_Direction
17 57 16 284 211 223 239 257 275 271 295 322 275 279 288 292 298 283 277 270 262 255 246 219 197 173 158 143 116 102 87 65 67 59 45 30 13 359 17 24 31 33 34 37
27 11 295 263 221 238 259 278 284 294 315 293 285 286 282 288 285 284 305 314 296 283 252 219 194 182 182 155 135 125 119 113 112 124 136 135 61 328 333 350 32 34 30 28
355 300 327 354 347 337 294 250 274 289 319 324 330 317 313 317 335 359 14 341 324 301 257 224 198 191 187 179 169 158 153 143 134 131 121 96 73 36 8 356 3 9 19 26
356 346 1 343 317 344 290 271 263 283 328 305 10 303 289 308 325 346 352 347 341 329 286 238 206 191 195 198 184 167 163 160 155 138 127 131 139 172 229 276 307 330 17 33
342 359 2 343 327 312 270 290 277 281 266 298 290 222 287 316 330 343 337 335 333 331 301 250 221 210 210 204 191 179 171 171 161 151 147 145 165 207 243 273 299 316 339 25
330 326 342 294 323 7 313 326 354 53 68 308 243 189 285 272 276 313 323 329 330 329 312 250 228 224 224 217 209 192 185 186 166 155 160 174 188 214 241 259 276 303 334 357
336 331 349 351 345 2 34 37 357 348 349 260 314 244 252 266 291 314 323 324 326 323 309 269 235 229 226 218 216 209 206 206 186 178 178 181 190 208 241 260 259 334 11 6
349 311 323 0 0 319 347 119 144 282 279 294 310 256 261 286 339 6 356 341 341 342 329 295 261 242 235 228 221 215 217 211 183 170 133 93 98 118 117 92 100 74 47 10
336 287 309 342 326 198 354 163 140 214 294 291 277 285 305 338 13 11 6 1 354 348 338 316 289 265 248 241 233 222 220 208 169 142 115 93 84 87 91 84 80 70 44 32
297 292 302 321 330 33 65 112 71 64 290 290 291 280 266 352 0 7 1 347 336 333 333 329 313 294 280 264 250 233 219 194 157 138 128 115 101 96 100 94 77 61 32 9
16 292 309 332 307 325 27 26 155 185 211 248 290 282 129 29 22 352 325 318 325 329 330 327 321 310 294 277 255 229 196 158 137 127 118 108 95 90 83 73 54 33 11 351
360 353 288 278 292 17 22 27 91 351 289 241 263 283 61 47 340 334 328 325 324 326 328 327 322 314 302 284 257 208 160 134 118 114 104 91 84 86 83 70 45 20 4 349
342 357 328 333 351 21 40 37 10 301 260 260 268 278 315 330 328 327 323 321 323 325 327 331 329 324 317 302 249 135 117 111 106 103 91 90 93 86 70 42 10 1 358 346
20 217 215 250 283 336 308 293 282 271 267 271 263 282 300 306 312 317 322 321 320 322 331 339 341 343 348 0 37 68 74 90 97 89 97 117 124 85 45 8 351 357 359 346
41 278 251 266 282 276 269 269 267 261 253 263 281 288 294 300 300 296 306 312 317 319 327 337 343 348 357 5 15 34 44 49 79 103 125 141 144 81 48 24 20 11 2 352
14 306 316 287 279 301 270 267 270 265 265 273 290 292 285 296 292 296 308 313 311 310 307 310 322 335 349 357 0 12 25 24 32 83 110 112 73 45 26 17 26 14 358 352
329 333 335 291 311 320 280 268 259 287 284 276 285 287 298 309 301 297 302 303 301 301 289 268 252 238 230 243 351 2 3 0 7 26 35 27 17 4 1 22 31 15 6 29
192 189 256 294 343 314 257 274 287 286 285 282 278 281 284 288 290 290 286 285 291 297 288 266 243 229 218 201 171 89 29 14 21 25 21 11 3 355 355 33 36 16 28 51
170 176 254 303 308 284 285 285 346 310 297 287 279 284 289 297 299 297 277 268 287 293 287 270 235 199 174 147 90 77 48 27 19 12 6 2 356 351 3 43 42 37 48 50
122 142 187 146 285 270 266 289 330 307 288 269 275 299 309 313 307 303 307 301 299 294 288 268 162 132 126 108 98 87 59 33 10 354 352 353 352 1 38 52 54 58 59 54
308 276 215 221 233 263 268 307 341 314 282 303 312 313 311 306 300 300 301 299 297 295 298 138 124 119 113 106 104 90 66 27 350 344 356 3 360 16 47 47 48 49 58 60
236 246 240 196 220 259 262 309 284 269 290 306 312 313 311 308 306 304 301 298 296 293 283 126 120 108 86 76 85 80 52 359 344 359 15 16 17 20 36 39 43 42 39 39
227 207 214 208 230 252 278 279 278 291 305 313 316 315 311 309 307 308 305 299 294 291 153 131 123 110 87 68 67 63 21 353 356 19 26 30 32 24 18 28 36 34 27 19
266 233 239 267 267 272 281 287 295 312 321 318 315 312 311 313 318 321 318 310 302 123 118 118 113 103 86 67 51 37 12 4 7 17 20 35 29 20 9 11 24 26 1 338
234 238 240 254 271 284 280 296 327 332 324 320 318 315 317 327 332 335 335 342 30 76 84 87 87 85 75 59 41 23 17 14 9 22 27 33 32 13 4 8 359 352 314 310
210 202 210 249 263 287 301 321 341 332 326 326 322 324 341 351 353 7 23 38 51 59 64 68 70 72 63 48 34 17 14 20 13 20 28 23 15 358 4 2 352 339 328 332
Height
1496 1501 1503 1501 1500 1499 1501 1502 1504 1497 1489 1489 1486 1481 1470 1459 1459 1458 1455 1456 1457 1457 1459 1461 1462 1462 1463 1464 1465 1466 1466 1466 1466 1465 1465 1465 1465 1465 1464 1464 1464 1464 1464 1463
1502 1503 1499 1498 1497 1498 1500 1502 1502 1495 1490 1489 1486 1482 1468 1460 1459 1457 1457 1458 1457 1455 1455 1456 1457 1458 1459 1461 1462 1462 1463 1463 1463 1462 1462 1462 1463 1464 1464 1463 1462 1462 1462 1462
1503 1503 1498 1498 1499 1500 1499 1501 1500 1499 1494 1490 1489 1482 1472 1461 1458 1458 1459 1459 1457 1454 1451 1451 1452 1454 1456 1458 1459 1459 1459 1459 1460 1460 1460 1460 1460 1461 1462 1462 1461 1459 1459 1459
1503 1502 1500 1499 1500 1500 1504 1497 1498 1498 1502 1502 1496 1497 1482 1471 1466 1461 1461 1458 1456 1453 1449 1448 1450 1451 1453 1455 1456 1456 1456 1456 1456 1457 1457 1457 1458 1458 1458 1458 1458 1457 1456 1456
1506 1504 1503 1502 1501 1500 1500 1496 1497 1497 1499 1503 1499 1501 1488 1476 1470 1467 1465 1461 1458 1454 1451 1449 1450 1452 1452 1453 1453 1453 1454 1454 1454 1454 1454 1454 1454 1455 1455 1455 1455 1454 1453 1453
1507 1505 1504 1503 1501 1501 1500 1498 1497 1503 1505 1505 1495 1502 1491 1480 1473 1472 1468 1464 1460 1456 1452 1449 1449 1451 1451 1451 1451 1451 1451 1451 1451 1452 1452 1452 1452 1452 1452 1451 1452 1451 1450 1450
1515 1508 1505 1503 1503 1502 1504 1508 1512 1509 1509 1503 1494 1496 1488 1473 1472 1473 1472 1469 1465 1460 1455 1450 1448 1448 1448 1449 1448 1449 1449 1448 1448 1449 1449 1449 1449 1449 1448 1448 1448 1447 1445 1445
1526 1520 1509 1506 1506 1507 1508 1510 1517 1521 1518 1510 1499 1493 1482 1473 1473 1473 1472 1470 1466 1461 1456 1451 1447 1445 1446 1447 1446 1446 1445 1445 1445 1445 1446 1446 1446 1445 1445 1444 1444 1443 1441 1440
1527 1522 1510 1508 1507 1507 1509 1514 1515 1522 1523 1523 1506 1496 1483 1469 1471 1471 1469 1466 1464 1460 1457 1452 1448 1445 1444 1444 1443 1442 1442 1441 1440 1440 1442 1442 1442 1442 1441 1440 1439 1438 1436 1435
1527 1528 1518 1513 1509 1508 1511 1517 1525 1524 1525 1519 1507 1498 1489 1480 1483 1478 1477 1475 1470 1463 1457 1451 1447 1445 1444 1442 1440 1439 1437 1436 1434 1434 1435 1436 1437 1437 1437 1436 1434 1432 1431 1431
1530 1532 1526 1519 1514 1513 1515 1517 1520 1527 1532 1529 1518 1491 1484 1486 1485 1484 1480 1475 1469 1463 1457 1450 1445 1441 1439 1437 1436 1434 1431 1429 1428 1427 1428 1431 1432 1432 1431 1430 1429 1427 1426 1425
1534 1536 1536 1526 1517 1517 1517 1520 1526 1532 1530 1529 1524 1496 1484 1484 1482 1481 1478 1473 1468 1463 1457 1449 1442 1435 1431 1428 1426 1425 1423 1421 1420 1422 1423 1426 1429 1428 1426 1424 1422 1421 1419 1417
1533 1537 1537 1527 1524 1525 1525 1526 1527 1530 1530 1522 1516 1498 1481 1481 1479 1478 1476 1471 1466 1460 1454 1446 1438 1430 1423 1418 1416 1414 1412 1413 1414 1416 1418 1423 1424 1423 1420 1418 1416 1414 1412 1410
1532 1536 1538 1534 1528 1532 1530 1528 1525 1527 1529 1520 1512 1499 1490 1486 1481 1477 1473 1468 1463 1458 1452 1444 1435 1427 1419 1413 1409 1407 1407 1409 1409 1412 1416 1419 1419 1417 1414 1412 1410 1408 1406 1405
1534 1538 1534 1531 1529 1529 1528 1524 1519 1521 1521 1520 1507 1499 1490 1485 1481 1475 1471 1466 1461 1455 1450 1443 1436 1429 1422 1416 1412 1408 1407 1408 1409 1412 1414 1414 1413 1411 1409 1407 1406 1404 1403 1403
1537 1539 1537 1533 1527 1527 1525 1516 1515 1514 1512 1509 1503 1495 1486 1481 1477 1472 1469 1464 1458 1451 1446 1441 1436 1431 1426 1421 1417 1413 1410 1409 1410 1410 1410 1410 1408 1406 1405 1404 1402 1402 1402 1402
1541 1542 1542 1540 1532 1526 1521 1512 1509 1510 1507 1505 1501 1492 1482 1479 1474 1470 1465 1460 1453 1447 1442 1437 1433 1429 1424 1421 1418 1414 1411 1409 1408 1407 1407 1406 1405 1404 1403 1402 1401 1400 1401 1401
1542 1542 1543 1542 1538 1539 1522 1509 1509 1507 1500 1497 1492 1484 1479 1475 1470 1463 1459 1454 1446 1441 1436 1431 1428 1424 1420 1417 1413 1411 1409 1407 1406 1404 1404 1403 1403 1403 1401 1400 1399 1400 1400 1399
1537 1540 1543 1546 1548 1538 1518 1508 1506 1506 1494 1489 1484 1478 1473 1468 1460 1449 1447 1445 1440 1435 1430 1426 1422 1419 1416 1414 1411 1408 1406 1404 1403 1402 1402 1402 1402 1401 1400 1399 1399 1398 1398 1397
1538 1539 1545 1553 1551 1541 1516 1505 1503 1503 1492 1481 1479 1474 1467 1460 1453 1439 1436 1434 1430 1425 1422 1419 1415 1413 1411 1409 1407 1405 1404 1402 1402 1401 1401 1401 1400 1399 1398 1398 1397 1397 1396 1395
1540 1541 1546 1549 1553 1533 1512 1506 1506 1508 1495 1479 1475 1469 1462 1454 1447 1436 1429 1423 1420 1417 1415 1412 1409 1407 1407 1406 1404 1402 1401 1400 1400 1400 1399 1399 1399 1398 1397 1396 1395 1394 1394 1394
1542 1544 1545 1546 1553 1537 1508 1507 1506 1499 1485 1480 1471 1464 1456 1446 1436 1428 1420 1414 1411 1409 1408 1405 1404 1403 1403 1403 1402 1400 1399 1399 1398 1398 1398 1397 1397 1396 1394 1394 1393 1392 1392 1392
1539 1536 1535 1533 1526 1510 1505 1502 1497 1492 1484 1475 1466 1458 1450 1440 1429 1419 1411 1406 1403 1403 1402 1401 1400 1400 1400 1400 1400 1399 1398 1398 1398 1397 1396 1395 1394 1393 1392 1391 1390 1390 1389 1389
1531 1527 1528 1523 1511 1505 1500 1494 1491 1488 1480 1470 1462 1453 1444 1435 1425 1415 1407 1402 1399 1398 1398 1398 1398 1399 1399 1399 1399 1399 1398 1397 1397 1396 1394 1392 1392 1391 1391 1390 1388 1388 1388 1387
1526 1523 1521 1516 1506 1500 1493 1490 1486 1479 1472 1463 1454 1447 1440 1432 1423 1415 1407 1402 1400 1399 1398 1399 1399 1399 1399 1399 1399 1399 1397 1396 1396 1394 1393 1391 1391 1391 1390 1388 1387 1387 1386 1386
1515 1515 1515 1509 1500 1498 1490 1485 1480 1473 1465 1457 1449 1442 1437 1431 1423 1416 1410 1406 1404 1402 1402 1401 1401 1401 1401 1401 1400 1399 1397 1396 1396 1395 1393 1391 1390 1390 1388 1387 1386 1385 1385 1383